Abilene Dyess, TX

11:56 PM CDT on October 16, 2017 (GMT -0500)
Dyess Air Force Base

Weather History for KDYS - April, 2013

Change the Weather History Date:

Monday, April 29, 2013

  Actual Average Record
Temperature  
Mean Temperature 70 °F -  
Max Temperature 88 °F 80 °F 96 °F (2002)
Min Temperature 53 °F 56 °F 39 °F (1998)
Cooling Degree Days 6    
Growing Degree Days 20 (Base 50)    
Moisture  
Dew Point 44 °F    
Average Humidity 34    
Maximum Humidity 72    
Minimum Humidity 16    
Precipitation  
Precipitation 0.00 in - - ()
Sea Level Pressure  
Sea Level Pressure 29.74 in    
Wind  
Wind Speed 12 mph (SSE)    
Max Wind Speed 23 mph    
Max Gust Speed 33 mph    
Visibility 10 miles    
Events      
Averages and records for this station are not official NWS values.
T = Trace of Precipitation, MM = Missing Value Source: NWS Daily Summary

Daily Weather History Graph

Daily Weather History Graph

Search for Another Location

Airport or City:

Trip Planner

Search our weather history database for the weather conditions in past years. The results will help you decide how hot, cold, wet, or windy it might be!

Date:

Astronomy

Apr. 29, 2013 Rise Set
Actual Time 6:54 AM CDT 8:19 PM CDT
Civil Twilight 6:28 AM CDT 8:45 PM CDT
Nautical Twilight 5:57 AM CDT 9:16 PM CDT
Astronomical Twilight 5:25 AM CDT 9:49 PM CDT
Moon No Moon Rise 10:22 AM CDT (4/29)
Length of Visible Light 14h 16m
Length of Day
13h 24m
Waning Gibbous, 80% of the Moon is Illuminated
Apr 29
Waning Gibbous
May 2
Last Quarter
May 9
New
May 17
First Quarter
May 24
Full

Hourly Weather History & Observations

Time (CDT) Temp. Dew Point Humidity Pressure Visibility Wind Dir Wind Speed Gust Speed Precip Events Conditions
12:58 AM 71.1 °F 45.7 °F 40% 29.75 in 10.0 mi South 15.0 mph 23.0 mph N/A   Clear
1:58 AM 68.4 °F 48.0 °F 48% 29.76 in 10.0 mi South 12.7 mph - N/A   Clear
2:58 AM 65.8 °F 48.2 °F 53% 29.75 in 10.0 mi South 11.5 mph - N/A   Clear
3:58 AM 63.5 °F 47.8 °F 57% 29.74 in 10.0 mi South 5.8 mph - N/A   Clear
4:58 AM 61.9 °F 47.3 °F 59% 29.75 in 10.0 mi SSW 5.8 mph - N/A   Clear
5:58 AM 61.7 °F 47.1 °F 59% 29.75 in 10.0 mi South 3.5 mph - N/A   Clear
6:58 AM 53.8 °F 44.8 °F 72% 29.79 in 10.0 mi Calm Calm - N/A   Clear
7:58 AM 59.2 °F 47.8 °F 66% 29.81 in 10.0 mi North 1.2 mph - N/A   Clear
8:58 AM 68.7 °F 48.6 °F 49% 29.80 in 10.0 mi SSW 8.1 mph - N/A   Clear
9:58 AM 75.2 °F 47.7 °F 38% 29.78 in 10.0 mi South 15.0 mph - N/A   Clear
10:58 AM 77.9 °F 48.6 °F 36% 29.77 in 10.0 mi SSW 15.0 mph - N/A   Clear
11:58 AM 81.5 °F 47.3 °F 30% 29.76 in 10.0 mi SSW 12.7 mph 18.4 mph N/A   Clear
12:58 PM 85.1 °F 44.8 °F 24% 29.73 in 10.0 mi SSW 16.1 mph - N/A   Partly Cloudy
1:36 PM 87.8 °F 41.0 °F 19% 29.84 in 10.0 mi SE 20.7 mph 21.9 mph N/A   Partly Cloudy
1:58 PM 87.6 °F 35.8 °F 16% 29.70 in 10.0 mi South 13.8 mph 24.2 mph N/A   Partly Cloudy
2:02 PM 87.8 °F 37.4 °F 17% 29.83 in 10.0 mi SE 17.3 mph 21.9 mph N/A   Partly Cloudy
2:06 PM 87.8 °F 37.4 °F 17% 29.83 in 10.0 mi SSE 11.5 mph 21.9 mph N/A   Partly Cloudy
2:20 PM 87.8 °F 39.2 °F 18% 29.83 in 10.0 mi South 12.7 mph 21.9 mph N/A   Clear
2:31 PM 87.8 °F 37.4 °F 17% 29.82 in 10.0 mi South 16.1 mph 20.7 mph N/A   Partly Cloudy
2:40 PM 87.8 °F 37.4 °F 17% 29.82 in 10.0 mi SE 13.8 mph 24.2 mph N/A   Clear
2:41 PM 87.8 °F 37.4 °F 17% 29.82 in 10.0 mi ESE 12.7 mph 24.2 mph N/A   Clear
2:58 PM 86.9 °F 36.5 °F 17% 29.69 in 10.0 mi ESE 16.1 mph - N/A   Clear
3:58 PM 88.2 °F 36.5 °F 16% 29.68 in 10.0 mi SE 12.7 mph 21.9 mph N/A   Clear
4:58 PM 87.4 °F 37.2 °F 17% 29.64 in 10.0 mi SSE 10.4 mph - N/A   Clear
5:58 PM 87.6 °F 41.4 °F 20% 29.62 in 10.0 mi South 8.1 mph 18.4 mph N/A   Clear
6:58 PM 86.4 °F 42.3 °F 21% 29.64 in 10.0 mi SE 10.4 mph 18.4 mph N/A   Clear
7:58 PM 82.6 °F 41.7 °F 24% 29.65 in 10.0 mi South 10.4 mph - N/A   Clear
8:58 PM 77.7 °F 43.5 °F 30% 29.65 in 10.0 mi SE 10.4 mph - N/A   Clear
9:58 PM 74.7 °F 47.1 °F 38% 29.65 in 10.0 mi SE 11.5 mph - N/A   Clear
10:58 PM 73.9 °F 56.1 °F 54% 29.66 in 10.0 mi SSE 21.9 mph 29.9 mph N/A   Clear
11:58 PM 71.4 °F 57.9 °F 62% 29.65 in 10.0 mi SSE 23.0 mph 33.4 mph N/A   Clear